User: anonymous   Login
Location: Caltech
(34.1382°N, 118.1253°W)
Time: 22:33:35
(UTC-07:00)
Language:

Cosmos 2333 Rocket - Orbit

View from above orbital plane
View from above orbital plane
View from above satellite
View from above satellite

Ground track
Ground track

The orbit data is extracted from the following two-line orbital elements,

1 24298U 96051B   14297.17995721 -.00000071  00000-0 -12278-4 0  5844
2 24298 070.8600 300.3106 0016223 189.6234 240.1588 14.12458137935289
Epoch (UTC): 24 October 2014 04:19:08
Eccentricity: 0.0016223
inclination: 70.8600°
perigee height: 839 km
apogee height: 863 km
right ascension of ascending node: 300.3106°
argument of perigee: 189.6234°
revolutions per day: 14.12458137
mean anomaly at epoch: 240.1588°
orbit number at epoch: 93528

The dashed part of the orbit path shows where the satellite is in the earth's shadow,  

DLR